sat.trackr.live / text

‹ back to catalog

STARLINK-4652

NORAD 53736 · 2022-107AN

PAYLOAD ACTIVE UNKNOWN

§ Identity

Operator
Country
US
Launch date
2022-09-05
Launch site
AFETR
Launch vehicle
Mass (kg)
RCS (m²)

Purposes: comms

External: N2YO · Heavens-Above · Gunter

§ Orbital elements

Epoch: 2026-05-25T01:58:57.476352Z

Period
95.44 min
Inclination
53.2154°
Eccentricity
0.0001272
Mean motion
15.08839956 rev/d
Perigee alt
538.9 km
Apogee alt
540.6 km
Semi-major
6,917.9 km
B*
3.2168e-5
RAAN
271.3695°
Arg perigee
87.5150°
Mean anomaly
272.5987°
Rev number
20,611

§ Raw data

STARLINK-46521 53736U 22107AN  26145.08260968  .00000224  00000+0  32168-4 0  99942 53736  53.2154 271.3695 0001272  87.5150 272.5987 15.08839956206111

JSON: /api/v1/satellites/53736 · /tle

For live sub-satellite position, see the globe view (requires WebGL).

§ Visibility from observer

Set your observer location to see the next 7 days of passes ≥ 10°. The values pass through the URL so the page stays shareable.

No JS? Fill the form by hand. The geolocation button needs JavaScript.